Wind_Speed
54 45 44 46 45 44 43 40 38 38 35 35 32 29 28 26 24 24 23 23 25 28 25 26 24 21 21 22 22 23 22 22 22 21 21 24 17 16 18 18 20 22 22 26 26 19 20 12 24 29 49 53 48 60
49 51 48 43 45 45 44 41 43 39 37 37 35 32 30 29 27 28 25 25 29 31 31 31 29 27 23 22 25 25 27 22 16 18 22 21 26 32 33 36 31 21 19 29 31 30 49 50 49 50 50 51 48 43
20 36 43 48 40 39 44 46 43 41 41 39 37 34 31 31 30 30 29 28 29 33 39 38 34 28 33 33 31 36 34 33 33 32 34 34 35 38 39 28 33 23 34 39 43 50 49 48 42 42 42 44 49 32
22 18 27 46 46 46 43 48 47 47 45 43 39 37 38 40 38 38 35 32 33 35 42 46 38 38 34 37 41 32 37 31 35 34 34 42 46 38 43 48 37 37 45 47 54 49 44 43 47 47 42 45 37 41
16 18 20 19 21 25 34 46 58 59 53 49 48 47 47 45 43 40 37 38 36 36 38 41 46 46 44 40 27 23 25 26 29 40 41 46 45 45 51 53 48 40 43 41 45 41 45 50 40 38 42 35 47 32
17 24 18 20 23 21 23 26 30 31 30 31 32 35 31 33 38 40 44 43 43 43 46 56 53 44 43 35 39 35 36 36 38 43 49 47 49 41 46 53 49 42 38 37 50 35 36 41 43 42 38 49 23 30
24 21 22 20 18 21 20 21 23 26 29 31 32 32 36 36 36 36 42 43 36 31 40 44 42 43 35 31 24 23 28 31 34 38 43 45 47 46 49 55 49 49 47 40 31 36 35 35 36 38 28 25 30 38
21 21 20 22 24 23 21 22 24 25 26 27 29 32 34 34 40 41 45 42 41 39 35 36 43 43 32 27 29 29 28 29 37 43 46 44 44 47 53 52 52 42 32 29 38 40 40 41 42 38 36 34 41 46
22 21 19 19 19 21 25 25 23 25 26 26 26 27 29 35 37 39 37 35 36 36 35 38 44 38 32 27 23 21 27 36 37 42 43 44 49 48 52 48 40 33 41 40 45 33 30 38 37 34 37 41 49 53
23 22 21 20 20 20 20 21 23 25 25 25 24 24 26 32 34 35 40 44 42 42 38 41 37 30 29 35 32 24 19 21 22 37 30 37 48 42 42 42 32 32 31 34 35 36 29 29 33 38 44 47 46 46
26 26 24 22 21 20 18 18 20 23 24 24 26 27 30 32 32 33 23 17 16 15 20 32 35 36 34 30 29 23 10 10 12 21 20 23 29 24 11 17 24 26 29 33 33 28 27 35 42 45 45 44 42 44
27 27 26 25 23 20 19 17 15 16 19 20 20 21 22 22 18 13 12 13 12 10 11 13 16 18 21 20 11 9 11 8 11 17 16 21 22 17 21 23 26 25 26 27 30 38 43 47 49 49 48 48 46 44
27 27 26 25 23 21 20 18 15 13 13 13 13 13 9 11 15 10 12 8 8 13 16 16 14 12 12 11 8 8 8 11 14 11 15 19 12 19 12 12 17 21 30 37 46 51 51 49 47 46 46 46 42 40
26 25 24 24 22 22 21 20 19 17 16 14 11 10 8 7 8 10 13 14 16 15 14 14 14 9 12 12 11 8 11 12 10 17 21 23 15 15 20 26 28 34 45 50 50 48 48 47 44 45 45 45 40 36
23 22 22 22 23 21 21 20 20 20 18 17 9 7 13 15 14 10 13 16 15 15 16 16 17 17 17 11 9 8 7 10 14 19 19 20 21 24 28 36 42 48 51 49 46 49 43 41 43 45 42 36 34 34
21 22 24 23 22 21 20 19 21 20 21 20 14 13 15 13 15 15 11 10 12 14 15 16 15 11 14 11 15 14 14 24 27 25 26 30 33 39 46 48 49 50 49 48 47 46 45 46 46 41 36 33 32 29
22 22 19 19 19 20 22 23 20 19 13 16 21 26 23 14 6 8 9 10 15 18 22 23 13 15 13 14 21 22 28 30 31 33 36 41 42 44 49 50 49 48 51 51 46 43 42 41 41 37 34 29 24 20
20 18 18 18 20 21 21 19 18 18 22 25 23 23 20 17 16 17 18 21 26 27 26 26 23 24 24 29 32 32 32 37 40 43 43 42 42 43 46 48 47 47 46 43 41 37 38 38 37 32 26 19 17 16
19 18 18 18 17 17 16 17 20 21 24 26 27 28 25 24 24 23 25 24 24 23 22 24 20 29 36 37 35 36 35 36 39 41 42 42 45 46 46 45 43 43 43 43 41 40 38 37 34 24 18 16 16 14
17 17 17 16 16 17 17 20 22 24 26 27 28 26 24 23 21 18 17 19 20 24 29 35 41 41 41 39 36 36 36 37 40 43 44 42 42 42 43 43 42 41 39 36 37 35 34 33 24 18 16 14 15 13
17 17 18 18 18 16 19 20 19 16 17 21 20 16 14 14 16 14 13 16 24 33 36 36 35 35 33 32 31 32 35 36 38 39 43 46 43 40 40 38 35 33 33 32 31 32 31 26 21 16 12 14 13 12
15 17 17 17 17 18 21 21 15 13 17 19 17 17 19 21 22 22 22 27 29 29 28 29 28 26 27 29 32 34 36 38 37 36 39 40 40 39 39 36 34 35 34 33 32 29 26 21 15 15 14 12 11 13
14 13 12 12 15 14 13 13 15 17 18 20 19 18 20 21 24 25 27 28 27 16 18 23 24 26 30 33 35 35 31 26 31 35 34 33 35 37 35 33 35 33 31 28 24 22 20 17 18 17 12 10 13 15
13 15 16 12 14 14 15 16 18 19 21 20 19 23 27 28 27 29 34 32 22 23 22 22 23 26 28 28 28 27 27 29 32 33 32 34 35 34 37 29 25 25 23 20 19 21 18 19 17 12 10 13 15 17
21 18 22 21 23 20 23 23 23 22 25 24 26 24 26 21 23 28 33 27 23 17 17 18 19 20 22 24 25 26 24 27 30 32 27 30 33 27 23 22 23 23 19 21 21 22 21 16 12 13 14 14 16 17
22 17 16 20 25 27 26 24 26 28 27 25 26 25 23 21 20 23 28 22 17 14 14 15 18 20 22 23 26 25 25 26 26 27 26 27 28 25 24 24 25 19 20 22 18 14 13 12 14 14 13 15 16 16
23 20 20 25 25 24 24 28 28 25 22 25 27 22 20 17 19 32 22 16 17 16 18 20 23 27 28 29 28 25 26 27 27 27 26 27 25 26 26 24 21 17 18 16 10 11 13 14 14 14 15 16 16 16
33 30 30 29 29 31 31 31 30 28 29 28 26 26 25 25 31 27 22 28 32 32 32 32 32 31 29 28 27 29 30 32 30 28 27 27 24 23 20 18 19 17 14 12 13 14 14 15 15 17 18 18 18 18
38 38 36 35 33 31 33 36 37 37 34 34 35 35 37 36 34 34 31 33 35 32 30 30 29 28 26 27 30 31 32 30 28 28 29 27 23 21 19 19 19 17 15 15 16 17 17 18 18 19 20 20 20 20
38 33 33 34 34 37 37 36 36 31 33 35 34 34 36 32 27 28 29 32 33 32 31 31 30 28 28 29 30 29 27 28 29 29 28 25 22 22 21 21 21 20 18 18 17 17 19 21 22 21 20 20 20 22
30 27 29 29 31 30 29 27 27 28 28 24 22 25 26 26 26 27 29 28 27 27 26 26 26 27 29 29 29 29 29 29 26 23 22 22 22 19 18 19 20 23 24 21 23 21 18 17 16 18 21 20 21 23
33 35 32 35 40 37 33 34 35 36 34 33 35 36 34 32 31 32 30 25 23 23 24 23 24 26 27 27 28 27 25 22 19 19 20 20 18 16 15 15 14 14 14 14 15 17 19 20 20 19 19 21 22 23
34 33 33 33 33 32 30 32 35 35 34 33 32 31 29 29 29 32 30 26 25 24 23 24 24 24 23 23 22 21 20 19 19 19 18 17 16 17 16 15 15 15 15 15 15 16 17 18 19 20 21 22 23 23
Wind_Direction
218 220 221 224 225 226 228 232 237 238 239 241 239 236 240 242 243 247 251 259 261 265 266 270 267 262 266 268 266 274 279 279 282 278 279 284 275 277 260 275 285 289 296 283 280 272 282 308 306 309 305 300 301 304
208 223 225 226 226 227 229 231 236 237 240 241 241 240 240 244 248 250 251 259 266 266 265 268 264 267 263 266 266 264 263 264 267 275 279 278 276 279 273 281 292 264 276 279 271 275 293 292 297 293 292 298 301 309
218 220 222 224 213 228 229 233 237 242 240 238 237 238 241 247 250 255 259 263 269 273 274 267 269 264 268 268 266 266 266 271 270 279 279 275 276 281 279 284 290 266 297 284 295 300 300 305 305 312 312 299 309 306
215 222 211 218 222 221 232 237 239 237 242 242 241 241 253 255 252 252 252 257 262 272 274 273 264 267 267 266 271 259 274 266 274 275 272 272 272 277 279 288 278 279 288 293 295 307 309 304 309 309 308 307 294 298
216 213 215 217 216 224 233 239 241 243 248 244 244 249 254 254 248 249 249 250 254 258 265 272 274 273 275 276 260 273 273 268 271 278 270 271 272 274 284 288 282 284 292 288 298 305 300 306 316 315 303 299 303 306
238 240 242 220 228 229 232 232 230 232 233 243 253 238 238 251 252 248 257 257 264 264 261 267 277 276 280 275 274 269 283 281 278 274 274 269 274 277 280 278 289 291 288 291 295 308 309 306 293 292 294 305 313 305
214 218 230 250 242 243 244 246 243 240 244 245 246 244 242 250 261 243 252 261 263 259 260 265 277 281 288 278 268 259 273 280 267 264 266 269 275 270 271 277 297 290 297 304 308 304 284 294 302 304 307 304 307 310
219 224 232 239 250 258 255 250 251 249 248 246 244 245 243 246 246 251 253 247 264 260 266 263 270 277 274 270 278 282 279 263 247 251 260 264 267 270 276 283 291 299 305 297 284 287 293 291 295 301 301 307 313 317
223 229 236 243 246 245 252 263 256 255 251 248 246 243 236 236 244 250 258 257 253 263 259 261 264 265 269 277 286 277 251 246 247 251 260 262 264 261 272 286 291 283 290 281 286 288 296 298 300 304 302 308 317 319
225 228 232 242 246 249 251 253 255 255 252 248 244 233 233 234 236 245 257 256 259 258 257 259 258 250 265 281 284 275 266 248 252 271 275 260 265 280 283 286 286 270 271 280 282 291 291 296 304 311 317 317 318 318
223 224 226 231 237 241 248 250 248 247 245 243 240 235 238 242 246 249 251 241 235 232 241 250 253 262 269 267 270 274 259 247 254 272 255 262 269 287 276 248 253 264 282 291 292 301 301 307 311 315 316 315 318 319
221 223 225 226 227 230 236 239 236 233 234 233 233 236 236 237 238 235 229 225 230 236 243 248 248 242 243 252 251 259 260 250 254 267 257 265 278 269 269 268 275 275 281 288 301 305 309 313 314 315 316 316 315 314
224 225 226 227 226 226 229 231 229 223 221 213 207 208 215 216 218 217 215 205 204 215 230 243 244 229 242 245 239 246 241 249 266 256 259 270 290 288 249 247 257 286 303 306 309 311 311 312 313 317 317 315 311 311
220 219 221 226 229 222 223 225 224 223 222 218 215 217 217 216 218 223 206 221 221 229 232 232 233 250 265 268 250 250 250 251 247 253 261 282 275 261 263 274 285 293 301 306 308 308 309 311 313 316 313 313 309 308
213 214 216 217 220 221 221 218 218 219 217 215 212 223 226 224 229 236 230 227 223 233 244 251 255 257 256 258 254 246 248 241 255 260 262 266 282 283 286 291 295 298 299 301 304 305 308 312 310 311 309 308 306 304
209 211 213 215 216 216 216 217 220 220 222 223 222 226 240 244 242 230 227 222 224 237 247 260 275 275 267 250 246 238 240 253 267 272 275 278 280 286 290 291 294 296 300 302 303 303 307 311 311 310 305 304 303 301
206 209 211 213 209 212 216 221 224 221 223 225 236 239 247 251 230 211 217 252 263 268 274 279 267 261 264 247 245 247 253 269 276 279 281 288 291 291 292 296 297 299 300 300 302 301 307 309 310 308 305 299 298 294
208 202 204 206 211 214 218 219 217 221 229 237 247 251 250 253 255 257 266 272 275 276 275 267 263 250 241 252 257 265 269 271 276 284 288 288 290 292 294 297 301 303 303 302 304 306 309 310 312 308 298 293 292 282
203 202 204 206 212 219 223 226 229 237 244 250 253 262 270 271 272 274 275 275 273 270 263 258 248 254 261 273 276 286 295 294 294 295 295 296 299 302 303 303 305 306 306 304 301 306 306 307 306 298 294 292 283 275
198 201 204 208 216 222 225 236 241 246 253 261 267 271 276 276 276 273 265 262 260 256 253 252 261 271 276 285 293 292 288 287 287 290 294 298 302 307 307 305 302 301 302 301 301 300 303 304 298 290 287 277 267 259
204 207 208 209 213 222 231 239 242 252 257 257 269 276 273 277 269 268 273 276 259 258 266 275 283 286 290 285 282 285 290 290 290 293 299 303 306 305 309 310 307 305 302 302 300 299 301 299 293 287 270 257 254 257
202 211 214 216 218 227 237 245 252 267 258 263 266 272 277 279 283 279 287 283 279 279 287 288 283 282 285 285 284 283 287 289 294 298 303 302 301 304 307 306 307 306 302 302 298 297 294 289 283 267 259 250 251 269
207 210 211 215 219 231 251 250 244 244 250 270 279 279 278 287 295 300 288 291 298 300 284 283 288 285 279 279 281 287 292 295 295 302 309 310 307 304 306 302 301 304 302 300 294 289 290 279 273 260 241 255 269 277
208 220 223 232 231 239 252 252 254 258 266 264 265 276 285 291 294 282 284 292 297 297 291 279 276 278 282 287 293 297 301 302 302 308 307 310 309 307 307 305 302 302 300 298 301 301 285 264 247 240 256 266 273 283
212 218 223 229 234 236 244 252 257 256 257 267 277 276 281 287 275 281 286 297 306 292 278 273 276 283 287 290 296 301 303 303 303 303 312 313 317 309 309 309 305 297 301 302 292 278 265 242 240 249 257 265 279 284
222 228 233 234 240 244 245 250 258 269 276 273 264 274 280 275 271 269 289 311 303 292 280 276 289 290 293 300 304 303 303 302 303 307 313 314 319 317 317 313 311 304 302 303 293 268 263 264 264 260 262 273 281 283
227 230 242 245 245 253 251 263 271 262 261 262 273 275 267 260 265 283 303 306 296 286 281 283 292 297 295 294 297 299 303 305 301 303 311 313 309 316 310 308 311 295 283 294 277 275 275 268 262 262 269 274 277 278
239 243 245 253 256 264 268 269 267 264 267 268 265 257 252 255 270 287 281 289 297 294 293 292 291 287 284 283 286 293 300 304 302 297 300 306 300 306 311 300 303 298 283 275 279 287 277 269 265 267 271 275 276 278
249 256 261 264 268 266 268 269 270 274 277 274 272 273 275 282 287 289 294 291 290 292 288 285 283 284 283 283 288 293 299 303 303 302 303 301 298 292 295 291 293 293 286 271 275 277 274 274 269 268 273 277 280 281
257 262 268 270 270 269 270 275 278 284 282 278 279 281 282 285 286 288 286 283 285 286 283 281 279 280 284 287 293 296 299 299 301 304 302 299 295 292 288 284 281 280 288 281 270 265 271 266 269 267 272 276 280 282
267 267 264 270 274 280 286 290 288 287 290 285 285 288 297 305 293 286 282 287 293 291 287 284 282 283 285 289 293 296 298 297 298 296 297 301 304 303 297 291 280 271 271 259 261 266 251 261 268 272 276 280 284 287
265 266 269 273 280 285 282 280 279 277 277 277 279 287 294 295 295 291 291 294 292 292 290 288 283 283 287 290 293 294 293 293 293 295 299 300 296 296 300 301 298 289 280 274 268 265 267 267 270 275 280 283 285 287
273 272 272 274 276 276 275 275 277 280 283 283 283 285 284 282 283 288 294 294 291 290 287 286 286 287 289 289 289 289 288 288 290 294 296 292 287 289 291 293 293 292 291 291 292 291 290 288 287 287 288 288 289 289
Height
3041 3050 3055 3062 3068 3074 3080 3085 3090 3096 3099 3105 3108 3111 3114 3117 3118 3121 3124 3126 3127 3125 3129 3128 3131 3134 3134 3134 3134 3135 3133 3131 3129 3128 3126 3124 3120 3121 3119 3119 3119 3118 3116 3111 3103 3099 3086 3086 3084 3083 3076 3065 3061 3053
3034 3042 3048 3054 3061 3067 3073 3077 3084 3088 3092 3097 3102 3106 3109 3111 3113 3114 3118 3119 3120 3120 3120 3122 3123 3127 3127 3129 3128 3127 3126 3127 3123 3122 3120 3116 3114 3111 3110 3104 3110 3108 3109 3102 3099 3089 3081 3080 3078 3071 3066 3058 3050 3045
3030 3034 3040 3047 3053 3059 3064 3070 3075 3081 3086 3090 3094 3098 3102 3105 3107 3109 3111 3113 3113 3111 3110 3111 3117 3121 3118 3119 3120 3118 3119 3120 3119 3119 3115 3109 3104 3104 3099 3095 3094 3094 3097 3089 3084 3076 3073 3068 3064 3063 3055 3048 3042 3036
3027 3030 3033 3039 3045 3051 3055 3063 3068 3074 3078 3082 3086 3090 3094 3097 3100 3101 3103 3106 3106 3104 3099 3097 3106 3108 3111 3109 3108 3109 3109 3111 3110 3110 3105 3099 3096 3094 3087 3087 3086 3089 3085 3078 3067 3062 3059 3055 3056 3052 3045 3039 3031 3026
3025 3028 3031 3036 3040 3045 3049 3053 3058 3064 3069 3072 3076 3080 3085 3088 3090 3091 3092 3094 3096 3100 3092 3089 3089 3097 3099 3100 3100 3100 3100 3102 3102 3099 3094 3089 3087 3088 3077 3074 3071 3077 3071 3069 3057 3056 3053 3045 3043 3041 3035 3026 3022 3017
3020 3024 3028 3032 3037 3040 3043 3046 3051 3055 3059 3064 3067 3071 3075 3079 3080 3081 3081 3083 3087 3088 3088 3079 3075 3076 3084 3089 3090 3090 3092 3090 3090 3086 3080 3077 3077 3079 3069 3056 3063 3065 3064 3061 3054 3051 3045 3040 3036 3031 3025 3021 3016 3011
3018 3021 3026 3027 3030 3034 3037 3041 3044 3048 3052 3056 3060 3064 3069 3071 3072 3072 3071 3070 3079 3081 3079 3074 3070 3065 3070 3074 3077 3080 3081 3080 3077 3074 3068 3069 3069 3068 3058 3050 3052 3055 3053 3050 3047 3041 3031 3030 3026 3022 3016 3012 3010 3004
3013 3017 3021 3023 3027 3029 3032 3036 3039 3043 3045 3049 3052 3056 3060 3064 3063 3063 3062 3064 3066 3070 3070 3068 3062 3060 3062 3065 3068 3068 3067 3066 3064 3061 3058 3059 3060 3053 3047 3044 3045 3045 3044 3043 3035 3029 3027 3021 3019 3015 3009 3007 3001 2992
3009 3013 3015 3019 3022 3025 3027 3029 3032 3035 3039 3041 3044 3047 3051 3054 3054 3055 3058 3058 3059 3063 3057 3055 3055 3055 3056 3056 3057 3056 3055 3053 3053 3050 3050 3053 3046 3039 3038 3039 3038 3038 3035 3026 3023 3020 3015 3013 3011 3008 3003 2997 2991 2984
3003 3008 3012 3014 3018 3020 3022 3024 3026 3029 3031 3033 3038 3041 3042 3044 3046 3051 3051 3051 3048 3046 3046 3047 3048 3050 3052 3050 3050 3051 3047 3047 3043 3041 3041 3034 3027 3031 3032 3031 3029 3024 3021 3018 3014 3013 3008 3007 3004 2999 2995 2989 2983 2976
2998 3003 3006 3010 3013 3014 3017 3019 3021 3023 3025 3026 3028 3031 3034 3037 3040 3041 3042 3041 3040 3037 3035 3037 3042 3044 3042 3044 3044 3043 3039 3038 3035 3035 3032 3024 3019 3023 3023 3022 3017 3016 3015 3012 3008 3005 3004 3000 2996 2990 2986 2980 2974 2968
2994 2998 3002 3004 3007 3009 3012 3015 3017 3018 3020 3022 3023 3025 3029 3030 3032 3036 3032 3032 3032 3033 3032 3032 3035 3035 3035 3037 3037 3036 3036 3034 3028 3024 3023 3015 3017 3016 3015 3013 3013 3009 3007 3005 3003 2999 2995 2991 2986 2980 2974 2969 2964 2959
2988 2992 2995 2999 3002 3005 3008 3011 3013 3016 3019 3018 3020 3024 3024 3024 3025 3025 3024 3024 3025 3025 3027 3029 3031 3031 3031 3033 3032 3033 3030 3027 3023 3019 3015 3012 3013 3011 3008 3004 3001 3001 2999 2996 2993 2990 2985 2979 2975 2969 2964 2959 2953 2950
2984 2987 2991 2995 2998 3000 3003 3006 3011 3013 3015 3016 3020 3020 3019 3017 3017 3019 3021 3021 3021 3021 3023 3024 3026 3028 3027 3029 3029 3026 3023 3021 3016 3013 3011 3011 3008 3004 3000 2998 2996 2994 2991 2986 2983 2979 2975 2969 2964 2960 2955 2949 2945 2941
2980 2983 2988 2992 2995 2997 3000 3004 3006 3009 3012 3014 3016 3014 3012 3011 3014 3018 3017 3018 3018 3018 3021 3022 3022 3023 3023 3025 3024 3021 3017 3011 3007 3006 3008 3005 3000 2996 2993 2991 2989 2984 2981 2978 2974 2969 2965 2960 2955 2950 2945 2940 2936 2933
2977 2981 2985 2989 2991 2994 2997 3000 3002 3004 3005 3010 3010 3008 3007 3009 3011 3013 3015 3016 3015 3015 3018 3019 3018 3017 3016 3018 3015 3009 3007 3001 3001 3002 2999 2995 2993 2990 2986 2983 2978 2975 2971 2966 2963 2958 2954 2950 2944 2940 2935 2931 2928 2924
2976 2979 2982 2985 2988 2991 2992 2995 2999 3000 3001 3002 3003 3004 3004 3006 3008 3010 3012 3013 3012 3013 3014 3015 3015 3013 3012 3007 3002 2999 2995 2994 2993 2990 2987 2986 2983 2979 2974 2970 2967 2963 2959 2955 2951 2948 2944 2939 2934 2929 2925 2922 2920 2918
2972 2976 2978 2981 2984 2987 2989 2992 2994 2994 2995 2997 2998 2999 3002 3003 3005 3007 3007 3007 3007 3006 3006 3007 3008 3003 2999 2993 2991 2991 2989 2986 2984 2982 2978 2974 2971 2967 2963 2959 2955 2951 2947 2944 2940 2937 2934 2929 2924 2919 2916 2914 2913 2913
2969 2973 2976 2979 2982 2985 2988 2990 2990 2990 2991 2991 2993 2994 2997 2998 2999 2999 2997 2998 2999 2999 2998 2998 2994 2986 2983 2984 2982 2981 2979 2976 2972 2968 2965 2963 2960 2956 2952 2948 2944 2940 2936 2933 2930 2927 2924 2920 2916 2912 2910 2909 2908 2908
2967 2970 2974 2977 2979 2981 2984 2985 2985 2986 2986 2986 2987 2989 2990 2990 2990 2990 2991 2991 2992 2991 2987 2983 2978 2978 2978 2977 2976 2973 2969 2967 2963 2958 2955 2952 2950 2946 2941 2936 2932 2929 2925 2922 2920 2918 2915 2911 2908 2906 2904 2904 2904 2904
2965 2968 2971 2974 2976 2978 2980 2978 2979 2981 2982 2982 2982 2982 2983 2984 2984 2984 2985 2985 2982 2977 2974 2972 2971 2970 2969 2967 2964 2963 2959 2957 2953 2950 2945 2940 2939 2935 2930 2926 2922 2918 2915 2913 2910 2908 2906 2903 2901 2900 2900 2900 2900 2901
2963 2966 2968 2970 2972 2974 2974 2974 2976 2977 2978 2977 2978 2978 2977 2977 2977 2977 2976 2972 2969 2968 2967 2965 2962 2960 2958 2957 2955 2953 2950 2947 2944 2941 2937 2932 2927 2924 2920 2917 2913 2909 2906 2903 2901 2900 2898 2896 2895 2895 2895 2896 2897 2897
2962 2964 2966 2968 2970 2970 2970 2971 2971 2972 2972 2971 2972 2971 2970 2970 2969 2968 2963 2960 2959 2959 2957 2955 2954 2952 2949 2947 2945 2943 2942 2939 2935 2932 2928 2923 2919 2915 2911 2907 2904 2900 2897 2895 2893 2893 2891 2891 2891 2892 2892 2893 2894 2894
2961 2962 2964 2965 2965 2965 2964 2965 2966 2967 2967 2967 2966 2965 2964 2963 2963 2958 2952 2952 2952 2951 2949 2946 2944 2942 2941 2939 2937 2935 2933 2931 2927 2923 2920 2915 2910 2906 2901 2897 2895 2893 2891 2889 2888 2887 2886 2886 2887 2888 2889 2890 2890 2890
2959 2960 2960 2958 2958 2959 2959 2960 2960 2961 2959 2960 2960 2959 2956 2956 2953 2949 2944 2943 2945 2942 2940 2938 2937 2936 2934 2932 2930 2928 2926 2923 2919 2915 2914 2908 2903 2897 2895 2892 2890 2888 2886 2885 2884 2883 2882 2882 2883 2884 2885 2886 2886 2885
2951 2951 2951 2949 2950 2953 2953 2953 2953 2953 2953 2953 2952 2951 2950 2948 2946 2940 2937 2938 2936 2935 2934 2933 2932 2930 2928 2926 2922 2920 2918 2915 2911 2908 2906 2902 2898 2894 2890 2887 2885 2882 2881 2881 2879 2878 2879 2879 2880 2881 2881 2881 2881 2881
2943 2942 2942 2943 2945 2946 2946 2946 2947 2948 2946 2944 2944 2945 2944 2940 2936 2932 2932 2931 2930 2929 2927 2926 2925 2923 2920 2918 2916 2914 2911 2908 2905 2902 2899 2896 2893 2890 2886 2883 2881 2879 2878 2877 2876 2876 2876 2876 2876 2877 2877 2877 2877 2877
2934 2935 2936 2939 2940 2940 2939 2939 2939 2937 2935 2936 2937 2936 2934 2931 2928 2929 2927 2924 2923 2921 2920 2918 2916 2913 2911 2909 2908 2906 2903 2900 2896 2894 2891 2889 2887 2885 2882 2879 2878 2876 2874 2874 2873 2873 2873 2873 2873 2873 2873 2872 2872 2872
2927 2929 2931 2931 2931 2930 2929 2928 2926 2926 2929 2928 2926 2923 2921 2921 2920 2918 2917 2916 2913 2911 2909 2908 2906 2904 2903 2901 2900 2898 2895 2891 2888 2886 2883 2881 2879 2878 2876 2875 2873 2872 2871 2870 2869 2869 2869 2869 2868 2868 2868 2867 2866 2866
2920 2923 2923 2922 2922 2919 2918 2920 2918 2918 2917 2915 2914 2912 2911 2910 2910 2910 2906 2903 2902 2901 2900 2898 2897 2896 2894 2893 2891 2889 2886 2884 2881 2879 2875 2874 2872 2871 2869 2868 2867 2867 2866 2865 2864 2864 2864 2863 2862 2861 2861 2861 2860 2859
2913 2914 2913 2912 2910 2910 2911 2911 2908 2907 2906 2905 2905 2903 2901 2900 2898 2897 2895 2895 2893 2891 2890 2889 2888 2887 2886 2884 2882 2880 2878 2876 2874 2872 2869 2868 2866 2864 2862 2861 2860 2859 2859 2858 2858 2858 2857 2857 2856 2856 2855 2854 2853 2853
2904 2904 2904 2902 2901 2903 2901 2899 2897 2896 2896 2895 2894 2894 2893 2891 2889 2886 2885 2886 2885 2883 2882 2881 2880 2879 2877 2876 2874 2872 2870 2869 2867 2866 2864 2863 2861 2860 2858 2857 2856 2855 2854 2853 2853 2852 2852 2851 2850 2849 2848 2847 2847 2845
2893 2893 2893 2891 2890 2890 2892 2890 2887 2885 2884 2883 2883 2883 2883 2882 2880 2877 2876 2876 2876 2875 2874 2873 2872 2871 2870 2868 2867 2865 2864 2863 2862 2861 2859 2857 2856 2855 2854 2853 2852 2851 2850 2849 2848 2847 2846 2845 2844 2843 2842 2841 2840 2838